1957,8,10,2,2209
1957,8,10,3,2304
1957,8,10,4,2301
1957,8,10,5,2264
1957,8,10,6,2154
1957,8,10,7,1996
1957,8,10,8,1844
1957,8,10,9,1676
1957,8,10,10,1612
1957,8,10,11,1566
1957,8,10,12,1575
1957,8,10,13,1676
1957,8,10,14,1868
1957,8,10,15,2008
1957,8,10,16,2103
1957,8,10,17,2133
1957,8,10,18,2090
1957,8,10,19,1962
1957,8,10,20,1801
1957,8,10,21,1670
1957,8,10,22,1639
1957,8,10,23,1664
1957,8,11,0,1758
1957,8,11,1,1926
1957,8,11,2,2109
1957,8,11,3,2264
1957,8,11,4,2353
1957,8,11,5,2353
1957,8,11,6,2255
1957,8,11,7,2075
1957,8,11,8,1859
1957,8,11,9,1673
1957,8,11,10,1551
1957,8,11,11,1514
1957,8,11,12,1560
1957,8,11,13,1712
1957,8,11,14,1898
1957,8,11,15,2048
1957,8,11,16,2154
1957,8,11,17,2191
1957,8,11,18,2148
1957,8,11,19,2020
1957,8,11,20,1850
1957,8,11,21,1694
1957,8,11,22,1588
1957,8,11,23,1569
1957,8,12,0,1624
1957,8,12,1,1761
1957,8,12,2,1944
1957,8,12,3,2109
1957,8,12,4,2231
1957,8,12,5,2279
1957,8,12,6,2246
1957,8,12,7,2103
1957,8,12,8,1911
1957,8,12,9,1700
1957,8,12,10,1545
1957,8,12,11,1475
1957,8,12,12,1475
1957,8,12,13,1557
1957,8,12,14,1709
1957,8,12,15,1898
1957,8,12,16,2069
1957,8,12,17,2167
1957,8,12,18,2167
1957,8,12,19,2072
1957,8,12,20,1905
1957,8,12,21,1752
1957,8,12,22,1615
1957,8,12,23,1542
1957,8,13,0,1557
1957,8,13,1,1664
1957,8,13,2,1828
1957,8,13,3,1984
1957,8,13,4,2127
1957,8,13,5,2209
1957,8,13,6,2206
1957,8,13,7,2127
1957,8,13,8,1978
1957,8,13,9,1783
1957,8,13,10,1615
1957,8,13,11,1524
1957,8,13,12,1508
1957,8,13,13,1563
1957,8,13,14,1712
1957,8,13,15,1871
1957,8,13,16,2039
1957,8,13,17,2161
1957,8,13,18,2191
1957,8,13,19,2170
1957,8,13,20,2063
1957,8,13,21,1911
1957,8,13,22,1752
1957,8,13,23,1655
1957,8,14,0,1642
1957,8,14,1,1691
1957,8,14,2,1807
1957,8,14,3,1938
1957,8,14,4,2075
1957,8,14,5,2191
1957,8,14,6,2231
1957,8,14,7,2203
1957,8,14,8,2103
1957,8,14,9,1947
1957,8,14,10,1780
1957,8,14,11,1636
1957,8,14,12,1563
1957,8,14,13,1575
1957,8,14,14,1676
1957,8,14,15,1816
1957,8,14,16,1959
1957,8,14,17,2097
1957,8,14,18,2194
1957,8,14,19,2203
1957,8,14,20,2145
1957,8,14,21,2011
1957,8,14,22,1862
1957,8,14,23,1734
1957,8,15,0,1658
1957,8,15,1,1639
1957,8,15,2,1703
1957,8,15,3,1828
1957,8,15,4,1978
1957,8,15,5,2069
1957,8,15,6,2133
1957,8,15,7,2154
1957,8,15,8,2103
1957,8,15,9,1987
1957,8,15,10,1819
1957,8,15,11,1670
1957,8,15,12,1578
1957,8,15,13,1539
1957,8,15,14,1588
1957,8,15,15,1697
1957,8,15,16,1850
1957,8,15,17,1987
1957,8,15,18,2090
1957,8,15,19,2154
1957,8,15,20,2148
1957,8,15,21,2066
1957,8,15,22,1901
1957,8,15,23,1786
1957,8,16,0,1685
1957,8,16,1,1636
1957,8,16,2,1652
1957,8,16,3,1731
1957,8,16,4,1859
1957,8,16,5,1972
1957,8,16,6,2048
1957,8,16,7,2103
1957,8,16,8,2087
1957,8,16,9,2017
1957,8,16,10,1889
1957,8,16,11,1758
1957,8,16,12,1652
1957,8,16,13,1594
1957,8,16,14,1606
1957,8,16,15,1679
1957,8,16,16,1773
1957,8,16,17,1914
1957,8,16,18,2051
1957,8,16,19,2130
1957,8,16,20,2142
1957,8,16,21,2115
1957,8,16,22,2051
1957,8,16,23,1920
1957,8,17,0,1831
1957,8,17,1,1773
1957,8,17,2,1752
1957,8,17,3,1761
1957,8,17,4,1819
1957,8,17,5,1901
1957,8,17,6,1993
1957,8,17,7,2057
1957,8,17,8,2069
1957,8,17,9,2048
1957,8,17,10,1981
1957,8,17,11,1886
1957,8,17,12,1786
1957,8,17,13,1712
1957,8,17,14,1694
1957,8,17,15,1712
1957,8,17,16,1758
1957,8,17,17,1844
1957,8,17,18,1944
1957,8,17,19,2051
1957,8,17,20,2118
1957,8,17,21,2139
1957,8,17,22,2106
1957,8,17,23,2036
1957,8,18,0,1920
1957,8,18,1,1819
1957,8,18,2,1746
1957,8,18,3,1728
1957,8,18,4,1740
1957,8,18,5,1783
1957,8,18,6,1865
1957,8,18,7,1914
1957,8,18,8,1950
1957,8,18,9,1975
1957,8,18,10,1926
1957,8,18,11,1901
1957,8,18,12,1816
1957,8,18,13,1740
1957,8,18,14,1691
1957,8,18,15,1682
1957,8,18,16,1691
1957,8,18,17,1740
1957,8,18,18,1837
1957,8,18,19,1944
1957,8,18,20,2029
1957,8,18,21,2103
1957,8,18,22,2127
1957,8,18,23,2118
1957,8,19,0,2048
1957,8,19,1,1956
1957,8,19,2,1871
1957,8,19,3,1798
1957,8,19,4,1743
1957,8,19,5,1737
1957,8,19,6,1758
1957,8,19,7,1831
1957,8,19,8,1898
1957,8,19,9,1950
1957,8,19,10,1972
1957,8,19,11,1978
1957,8,19,12,1935
1957,8,19,13,1865
1957,8,19,14,1783
1957,8,19,15,1731
1957,8,19,16,1709
1957,8,19,17,1712
1957,8,19,18,1743
1957,8,19,19,1813
1957,8,19,20,1929
1957,8,19,21,2020
1957,8,19,22,2081
1957,8,19,23,2118
1957,8,20,0,2124
1957,8,20,1,2060
1957,8,20,2,1981
1957,8,20,3,1859
1957,8,20,4,1761
1957,8,20,5,1709
1957,8,20,6,1685
1957,8,20,7,1700
1957,8,20,8,1743
1957,8,20,9,1807
1957,8,20,10,1880
1957,8,20,11,1944
1957,8,20,12,1984
1957,8,20,13,1969
1957,8,20,14,1914
1957,8,20,15,1837
1957,8,20,16,1786
1957,8,20,17,1737
1957,8,20,18,1722
1957,8,20,19,1755
1957,8,20,20,1853
1957,8,20,21,1962
1957,8,20,22,2075
1957,8,20,23,2182
1957,8,21,0,2231
1957,8,21,1,2231
1957,8,21,2,2167
1957,8,21,3,2048
1957,8,21,4,1914
1957,8,21,5,1780
1957,8,21,6,1682
1957,8,21,7,1652
1957,8,21,8,1655
1957,8,21,9,1697
1957,8,21,10,1801
1957,8,21,11,1898
1957,8,21,12,1972
1957,8,21,13,2005
1957,8,21,14,2002
1957,8,21,15,1947
1957,8,21,16,1859
1957,8,21,17,1761
1957,8,21,18,1670
1957,8,21,19,1655
1957,8,21,20,1691
1957,8,21,21,1783
1957,8,21,22,1914
1957,8,21,23,2066
1957,8,22,0,2182
1957,8,22,1,2231
1957,8,22,2,2231
1957,8,22,3,2142
1957,8,22,4,2005
1957,8,22,5,1837
1957,8,22,6,1712
1957,8,22,7,1609
1957,8,22,8,1572
1957,8,22,9,1591
1957,8,22,10,1679
1957,8,22,11,1801
1957,8,22,12,1923
1957,8,22,13,2011
1957,8,22,14,2063
1957,8,22,15,2048
1957,8,22,16,1929
1957,8,22,17,1840
1957,8,22,18,1719
1957,8,22,19,1633
1957,8,22,20,1603
1957,8,22,21,1652
1957,8,22,22,1761
1957,8,22,23,1926
1957,8,23,0,2106
1957,8,23,1,2240
1957,8,23,2,2304
1957,8,23,3,2289
1957,8,23,4,2188
1957,8,23,5,2026
1957,8,23,6,1819
1957,8,23,7,1639
1957,8,23,8,1520
1957,8,23,9,1493
1957,8,23,10,1551
1957,8,23,11,1682
1957,8,23,12,1844
1957,8,23,13,2017
1957,8,23,14,2139
1957,8,23,15,2179
1957,8,23,16,2164
1957,8,23,17,2039
1957,8,23,18,1883
1957,8,23,19,1712
1957,8,23,20,1609
1957,8,23,21,1584
1957,8,23,22,1642
1957,8,23,23,1801
1957,8,24,0,1993
1957,8,24,1,2215
1957,8,24,2,2368
1957,8,24,3,2432
1957,8,24,4,2398
1957,8,24,5,2258
1957,8,24,6,2054
1957,8,24,7,1822
1957,8,24,8,1594
1957,8,24,9,1493
1957,8,24,10,1484
1957,8,24,11,1578
1957,8,24,12,1740
1957,8,24,13,1950
1957,8,24,14,2157
1957,8,24,15,2286
1957,8,24,16,2310
1957,8,24,17,2234
1957,8,24,18,2078
1957,8,24,19,1874
1957,8,24,20,1703
1957,8,24,21,1606
1957,8,24,22,1581
1957,8,24,23,1670
1957,8,25,0,1840
1957,8,25,1,2069
1957,8,25,2,2279
1957,8,25,3,2420
1957,8,25,4,2453
1957,8,25,5,2371
1957,8,25,6,2188
1957,8,25,7,1956
1957,8,25,8,1709
1957,8,25,9,1530
1957,8,25,10,1453
1957,8,25,11,1453
1957,8,25,12,1584
1957,8,25,13,1792
1957,8,25,14,2020
1957,8,25,15,2215
1957,8,25,16,2307
1957,8,25,17,2313
1957,8,25,18,2197
1957,8,25,19,2017
1957,8,25,20,1834
1957,8,25,21,1670
1957,8,25,22,1588
1957,8,25,23,1578
1957,8,26,0,1719
1957,8,26,1,1935
1957,8,26,2,2164
1957,8,26,3,2353
1957,8,26,4,2459
1957,8,26,5,2456
1957,8,26,6,2346
1957,8,26,7,2133
1957,8,26,8,1877
1957,8,26,9,1652
1957,8,26,10,1508
1957,8,26,11,1456
1957,8,26,12,1508
1957,8,26,13,1664
1957,8,26,14,1877
1957,8,26,15,2121
1957,8,26,16,2289
1957,8,26,17,2346
1957,8,26,18,2307
1957,8,26,19,2161
1957,8,26,20,1959
1957,8,26,21,1752
1957,8,26,22,1591
1957,8,26,23,1536
1957,8,27,0,1591
1957,8,27,1,1746
1957,8,27,2,1953
1957,8,27,3,2170
1957,8,27,4,2353
1957,8,27,5,2426
1957,8,27,6,2398
1957,8,27,7,2252
1957,8,27,8,2023
1957,8,27,9,1780
1957,8,27,10,1600
1957,8,27,11,1508
1957,8,27,12,1496
1957,8,27,13,1603
1957,8,27,14,1786
1957,8,27,15,2020
1957,8,27,16,2234
1957,8,27,17,2365
1957,8,27,18,2389
1957,8,27,19,2316
1957,8,27,20,2154
1957,8,27,21,1972
1957,8,27,22,1786
1957,8,27,23,1670
1957,8,28,0,1636
1957,8,28,1,1703
1957,8,28,2,1837
1957,8,28,3,1990
1957,8,28,4,2185
1957,8,28,5,2322
1957,8,28,6,2371
1957,8,28,7,2328
1957,8,28,8,2173
1957,8,28,9,1972
1957,8,28,10,1770
1957,8,28,11,1621
1957,8,28,12,1545
1957,8,28,13,1554
1957,8,28,14,1670
1957,8,28,15,1844
1957,8,28,16,2063
1957,8,28,17,2231
1957,8,28,18,2343
1957,8,28,19,2368
1957,8,28,20,2246
1957,8,28,21,2084
1957,8,28,22,1926
1957,8,28,23,1764
1957,8,29,0,1664
1957,8,29,1,1636
1957,8,29,2,1691
1957,8,29,3,1822
1957,8,29,4,1984
1957,8,29,5,2133
1957,8,29,6,2234
1957,8,29,7,2264
1957,8,29,8,2206
1957,8,29,9,2075
1957,8,29,10,1911
1957,8,29,11,1731
1957,8,29,12,1609
1957,8,29,13,1572
1957,8,29,14,1630
1957,8,29,15,1761
1957,8,29,16,1962
1957,8,29,17,2106
1957,8,29,18,2231
1957,8,29,19,2301
1957,8,29,20,2310
1957,8,29,21,2222
1957,8,29,22,2084
1957,8,29,23,1917
1957,8,30,0,1773
1957,8,30,1,1706
1957,8,30,2,1709
1957,8,30,3,1773
1957,8,30,4,1877
1957,8,30,5,2005
1957,8,30,6,2124
1957,8,30,7,2191
1957,8,30,8,2194
1957,8,30,9,2148
1957,8,30,10,2036
1957,8,30,11,1889
1957,8,30,12,1761
1957,8,30,13,1697
1957,8,30,14,1691
1957,8,30,15,1752
1957,8,30,16,1862
1957,8,30,17,1996
1957,8,30,18,2148
1957,8,30,19,2246
1957,8,30,20,2289
1957,8,30,21,2273
1957,8,30,22,2188
1957,8,30,23,2069
1957,8,31,0,1929
1957,8,31,1,1822
1957,8,31,2,1773
1957,8,31,3,1761
1957,8,31,4,1795
1957,8,31,5,1880
1957,8,31,6,1987
1957,8,31,7,2066
1957,8,31,8,2112
1957,8,31,9,2115
1957,8,31,10,2060
1957,8,31,11,1956
1957,8,31,12,1844
1957,8,31,13,1743
1957,8,31,14,1712
1957,8,31,15,1722
1957,8,31,16,1786
1957,8,31,17,1871
1957,8,31,18,1981
1957,8,31,19,2087
1957,8,31,20,2161
1957,8,31,21,2188
1957,8,31,22,2182
1957,8,31,23,2118
1957,9,1,0,1999
1957,9,1,1,1886
1957,9,1,2,1801
1957,9,1,3,1758
1957,9,1,4,1743
1957,9,1,5,1773
1957,9,1,6,1834
1957,9,1,7,1908
1957,9,1,8,1972
1957,9,1,9,2008
1957,9,1,10,2017
1957,9,1,11,1987
1957,9,1,12,1914
1957,9,1,13,1831
1957,9,1,14,1770
1957,9,1,15,1758
1957,9,1,16,1767
1957,9,1,17,1813
1957,9,1,18,1895
1957,9,1,19,1990
1957,9,1,20,2078
1957,9,1,21,2133
1957,9,1,22,2164
1957,9,1,23,2148
1957,9,2,0,2081
1957,9,2,1,1999
1957,9,2,2,1898
1957,9,2,3,1810
1957,9,2,4,1758
1957,9,2,5,1767
1957,9,2,6,1767
1957,9,2,7,1813
1957,9,2,8,1853
1957,9,2,9,1914
1957,9,2,10,1953
1957,9,2,11,1981
1957,9,2,12,1972
1957,9,2,13,1932
1957,9,2,14,1877
1957,9,2,15,1822
1957,9,2,16,1792
1957,9,2,17,1773
1957,9,2,18,1816
1957,9,2,19,1886
1957,9,2,20,1969
1957,9,2,21,2042
1957,9,2,22,2121
1957,9,2,23,2170
1957,9,3,0,2179
1957,9,3,1,2142
1957,9,3,2,2063
1957,9,3,3,1965
1957,9,3,4,1871
1957,9,3,5,1807
1957,9,3,6,1773
1957,9,3,7,1767
1957,9,3,8,1776
1957,9,3,9,1831
1957,9,3,10,1898
1957,9,3,11,1965
1957,9,3,12,1993
1957,9,3,13,2002
1957,9,3,14,1987
1957,9,3,15,1929
1957,9,3,16,1880
1957,9,3,17,1816
1957,9,3,18,1789
1957,9,3,19,1789
1957,9,3,20,1831
1957,9,3,21,1911
1957,9,3,22,2020
1957,9,3,23,2112
1957,9,4,0,2170
1957,9,4,1,2194
1957,9,4,2,2185
1957,9,4,3,2090
1957,9,4,4,1975
1957,9,4,5,1874
1957,9,4,6,1783
1957,9,4,7,1731
1957,9,4,8,1722
1957,9,4,9,1758
1957,9,4,10,1828
1957,9,4,11,1889
1957,9,4,12,1981
1957,9,4,13,2011
1957,9,4,14,2042
1957,9,4,15,1981
1957,9,4,16,1920
1957,9,4,17,1828
1957,9,4,18,1767
1957,9,4,19,1737
1957,9,4,20,1767
1957,9,4,21,1828
1957,9,4,22,1932
1957,9,4,23,2039
1957,9,5,0,2133
1957,9,5,1,2194
1957,9,5,2,2222
1957,9,5,3,2179
1957,9,5,4,2063
1957,9,5,5,1926
1957,9,5,6,1786
1957,9,5,7,1685
1957,9,5,8,1655
1957,9,5,9,1664
1957,9,5,10,1722
1957,9,5,11,1828
1957,9,5,12,1944
1957,9,5,13,2026
1957,9,5,14,2063
1957,9,5,15,2078
1957,9,5,16,2020
1957,9,5,17,1932
1957,9,5,18,1819
1957,9,5,19,1746
1957,9,5,20,1700
1957,9,5,21,1737
1957,9,5,22,1822
1957,9,5,23,1959
1957,9,6,0,2106
1957,9,6,1,2209
1957,9,6,2,2249
1957,9,6,3,2243
1957,9,6,4,2157
1957,9,6,5,2020
1957,9,6,6,1853
1957,9,6,7,1716
1957,9,6,8,1642
1957,9,6,9,1618
1957,9,6,10,1652
1957,9,6,11,1758
1957,9,6,12,1901
1957,9,6,13,2011
1957,9,6,14,2093
1957,9,6,15,2118
1957,9,6,16,2087
1957,9,6,17,1990
1957,9,6,18,1895
1957,9,6,19,1755
1957,9,6,20,1688
1957,9,6,21,1664
1957,9,6,22,1709
1957,9,6,23,1837
1957,9,7,0,1996
1957,9,7,1,2133
1957,9,7,2,2234
1957,9,7,3,2270
1957,9,7,4,2231
1957,9,7,5,2118
1957,9,7,6,1965
1957,9,7,7,1804
1957,9,7,8,1670
1957,9,7,9,1612
1957,9,7,10,1615
1957,9,7,11,1694
1957,9,7,12,1834
1957,9,7,13,1987
1957,9,7,14,2118
1957,9,7,15,2194
1957,9,7,16,2200
1957,9,7,17,2115
1957,9,7,18,1987
1957,9,7,19,1853
1957,9,7,20,1734
1957,9,7,21,1645
1957,9,7,22,1676
1957,9,7,23,1743
1957,9,8,0,1905
1957,9,8,1,2072
1957,9,8,2,2212
1957,9,8,3,2289
1957,9,8,4,2292
1957,9,8,5,2212
1957,9,8,6,2057
1957,9,8,7,1874
1957,9,8,8,1691
1957,9,8,9,1591
1957,9,8,10,1569
1957,9,8,11,1621
1957,9,8,12,1755
1957,9,8,13,1920
1957,9,8,14,2093
1957,9,8,15,2194
1957,9,8,16,2237
1957,9,8,17,2215
1957,9,8,18,2090
1957,9,8,19,1935
1957,9,8,20,1783
1957,9,8,21,1667
1957,9,8,22,1633
1957,9,8,23,1664
1957,9,9,0,1755
1957,9,9,1,1935
1957,9,9,2,2118
1957,9,9,3,2243
1957,9,9,4,2304
1957,9,9,5,2292
1957,9,9,6,2179
1957,9,9,7,2023
1957,9,9,8,1850
1957,9,9,9,1700
1957,9,9,10,1615
1957,9,9,11,1606
1957,9,9,12,1688
1957,9,9,13,1844
1957,9,9,14,2002
1957,9,9,15,2142
1957,9,9,16,2240
1957,9,9,17,2261
1957,9,9,18,2185
1957,9,9,19,2042
1957,9,9,20,1898
1957,9,9,21,1746
1957,9,9,22,1652
1957,9,9,23,1658
1957,9,10,0,1743
1957,9,10,1,1862
1957,9,10,2,2020
1957,9,10,3,2164
1957,9,10,4,2276
1957,9,10,5,2301
1957,9,10,6,2246
1957,9,10,7,2118
1957,9,10,8,1941
1957,9,10,9,1770
1957,9,10,10,1655
1957,9,10,11,1627
1957,9,10,12,1664
1957,9,10,13,1770
1957,9,10,14,1911
1957,9,10,15,2069
1957,9,10,16,2234
1957,9,10,17,2276
1957,9,10,18,2267
1957,9,10,19,2161
1957,9,10,20,1999
1957,9,10,21,1819
1957,9,10,22,1691
1957,9,10,23,1642
1957,9,11,0,1664
1957,9,11,1,1770
1957,9,11,2,1926
1957,9,11,3,2081
1957,9,11,4,2212
1957,9,11,5,2286
1957,9,11,6,2282
1957,9,11,7,2176
1957,9,11,8,2002
1957,9,11,9,1831
1957,9,11,10,1697
1957,9,11,11,1624
1957,9,11,12,1630
1957,9,11,13,1716
1957,9,11,14,1850
1957,9,11,15,2020
1957,9,11,16,2167
1957,9,11,17,2273
1957,9,11,18,2301
1957,9,11,19,2240
1957,9,11,20,2118
1957,9,11,21,1950
1957,9,11,22,1798
1957,9,11,23,1706
1957,9,12,0,1688
1957,9,12,1,1731
1957,9,12,2,1847
1957,9,12,3,1999
1957,9,12,4,2133
1957,9,12,5,2240
1957,9,12,6,2273
1957,9,12,7,2206
1957,9,12,8,2072
1957,9,12,9,1905
1957,9,12,10,1758
1957,9,12,11,1667
1957,9,12,12,1633
1957,9,12,13,1697
1957,9,12,14,1810
1957,9,12,15,1965
1957,9,12,16,2133
1957,9,12,17,2255
1957,9,12,18,2304
1957,9,12,19,2292
1957,9,12,20,2194
1957,9,12,21,2042
1957,9,12,22,1880
1957,9,12,23,1746
1957,9,13,0,1682
1957,9,13,1,1682
1957,9,13,2,1767
1957,9,13,3,1911
1957,9,13,4,2045
1957,9,13,5,2173
1957,9,13,6,2231
1957,9,13,7,2231
1957,9,13,8,2142
1957,9,13,9,2017
1957,9,13,10,1877
1957,9,13,11,1749
1957,9,13,12,1682
1957,9,13,13,1670
1957,9,13,14,1749
1957,9,13,15,1883
1957,9,13,16,2020
1957,9,13,17,2157
1957,9,13,18,2261
1957,9,13,19,2295
1957,9,13,20,2255
1957,9,13,21,2145
1957,9,13,22,1990
1957,9,13,23,1837
1957,9,14,0,1734
1957,9,14,1,1685
1957,9,14,2,1706
1957,9,14,3,1804
1957,9,14,4,1929
1957,9,14,5,2048
1957,9,14,6,2145
1957,9,14,7,2185
1957,9,14,8,2157
1957,9,14,9,2084
1957,9,14,10,1965
1957,9,14,11,1853
1957,9,14,12,1758
1957,9,14,13,1728
1957,9,14,14,1755
1957,9,14,15,1868
1957,9,14,16,1987
1957,9,14,17,2124
1957,9,14,18,2237
1957,9,14,19,2307
1957,9,14,20,2316
1957,9,14,21,2255
1957,9,14,22,2133
1957,9,14,23,1993
1957,9,15,0,1868
1957,9,15,1,1776
1957,9,15,2,1767
1957,9,15,3,1819
1957,9,15,4,1905
1957,9,15,5,1993
1957,9,15,6,2075
1957,9,15,7,2145
1957,9,15,8,2154
1957,9,15,9,2130
1957,9,15,10,2054
1957,9,15,11,1938
1957,9,15,12,1831
1957,9,15,13,1761
1957,9,15,14,1755
1957,9,15,15,1801
1957,9,15,16,1898
1957,9,15,17,2002
1957,9,15,18,2112
1957,9,15,19,2197
1957,9,15,20,2261
1957,9,15,21,2261
1957,9,15,22,2185
1957,9,15,23,2081
1957,9,16,0,1962
1957,9,16,1,1850
1957,9,16,2,1773
1957,9,16,3,1746
1957,9,16,4,1773
1957,9,16,5,1847
1957,9,16,6,1953
1957,9,16,7,2051
1957,9,16,8,2109
1957,9,16,9,2121
1957,9,16,10,2112
1957,9,16,11,2060
1957,9,16,12,1981
1957,9,16,13,1898
1957,9,16,14,1847
1957,9,16,15,1837
1957,9,16,16,1868
1957,9,16,17,1950
1957,9,16,18,2042
1957,9,16,19,2133
1957,9,16,20,2225
1957,9,16,21,2286
1957,9,16,22,2270
1957,9,16,23,2222
1957,9,17,0,2118
1957,9,17,1,1990
1957,9,17,2,1883
1957,9,17,3,1813
1957,9,17,4,1789
1957,9,17,5,1798
1957,9,17,6,1850
1957,9,17,7,1920
1957,9,17,8,1990
1957,9,17,9,2048
1957,9,17,10,2090
1957,9,17,11,2100
1957,9,17,12,2060
1957,9,17,13,1972
1957,9,17,14,1898
1957,9,17,15,1844
1957,9,17,16,1813
1957,9,17,17,1834
1957,9,17,18,1889
1957,9,17,19,1981
1957,9,17,20,2072
1957,9,17,21,2164
1957,9,17,22,2225
1957,9,17,23,2237
1957,9,18,0,2212
1957,9,18,1,2124
1957,9,18,2,2008
1957,9,18,3,1901
1957,9,18,4,1834
1957,9,18,5,1783
1957,9,18,6,1758
1957,9,18,7,1776
1957,9,18,8,1844
1957,9,18,9,1932
1957,9,18,10,2011
1957,9,18,11,2069
1957,9,18,12,2078
1957,9,18,13,2066
1957,9,18,14,2017
1957,9,18,15,1959
1957,9,18,16,1898
1957,9,18,17,1847
1957,9,18,18,1844
1957,9,18,19,1883
1957,9,18,20,1959
1957,9,18,21,2057
1957,9,18,22,2161
1957,9,18,23,2237
1957,9,19,0,2276
1957,9,19,1,2273
1957,9,19,2,2203
1957,9,19,3,2090
1957,9,19,4,1965
1957,9,19,5,1856
1957,9,19,6,1786
1957,9,19,7,1770
1957,9,19,8,1801
1957,9,19,9,1871
1957,9,19,10,1953
1957,9,19,11,2051
1957,9,19,12,2136
1957,9,19,13,2176
1957,9,19,14,2176
1957,9,19,15,2115
1957,9,19,16,2029
1957,9,19,17,1923
1957,9,19,18,1865
1957,9,19,19,1859
1957,9,19,20,1868
1957,9,19,21,1929
1957,9,19,22,2042
1957,9,19,23,2173
1957,9,20,0,2295
1957,9,20,1,2343
1957,9,20,2,2346
1957,9,20,3,2267
1957,9,20,4,2136
1957,9,20,5,1981
1957,9,20,6,1847
1957,9,20,7,1758
1957,9,20,8,1728
1957,9,20,9,1752
1957,9,20,10,1850
1957,9,20,11,1972
1957,9,20,12,2100
1957,9,20,13,2191
1957,9,20,14,2234
1957,9,20,15,2228
1957,9,20,16,2148
1957,9,20,17,2020
1957,9,20,18,1883
1957,9,20,19,1807
1957,9,20,20,1770
1957,9,20,21,1804
1957,9,20,22,1898
1957,9,20,23,2045
1957,9,21,0,2197
1957,9,21,1,2343
1957,9,21,2,2423
1957,9,21,3,2404
1957,9,21,4,2270
1957,9,21,5,2087
1957,9,21,6,1929
1957,9,21,7,1776
1957,9,21,8,1673
1957,9,21,9,1645
1957,9,21,10,1697
1957,9,21,11,1825
1957,9,21,12,1990
1957,9,21,13,2154
1957,9,21,14,2279
1957,9,21,15,2322
1957,9,21,16,2273
1957,9,21,17,2148
1957,9,21,18,1975
1957,9,21,19,1859
1957,9,21,20,1746
1957,9,21,21,1688
1957,9,21,22,1728
1957,9,21,23,1844
1957,9,22,0,2017
1957,9,22,1,2203
1957,9,22,2,2353
1957,9,22,3,2423
1957,9,22,4,2386
1957,9,22,5,2246
1957,9,22,6,2057
1957,9,22,7,1880
1957,9,22,8,1719
1957,9,22,9,1618
1957,9,22,10,1597
1957,9,22,11,1667
1957,9,22,12,1837
1957,9,22,13,2023
1957,9,22,14,2203
1957,9,22,15,2337
1957,9,22,16,2377
1957,9,22,17,2307
1957,9,22,18,2161
1957,9,22,19,1990
1957,9,22,20,1813
1957,9,22,21,1706
1957,9,22,22,1679
1957,9,22,23,1728
1957,9,23,0,1880
1957,9,23,1,2069
1957,9,23,2,2270
1957,9,23,3,2398
1957,9,23,4,2453
1957,9,23,5,2395
1957,9,23,6,2279
1957,9,23,7,2054
1957,9,23,8,1844
1957,9,23,9,1667
1957,9,23,10,1603
1957,9,23,11,1621
1957,9,23,12,1743
1957,9,23,13,1932
1957,9,23,14,2145
1957,9,23,15,2331
1957,9,23,16,2438
1957,9,23,17,2462
1957,9,23,18,2374
1957,9,23,19,2206
1957,9,23,20,2008
1957,9,23,21,1819
1957,9,23,22,1694
1957,9,23,23,1664
1957,9,24,0,1740
1957,9,24,1,1929
1957,9,24,2,2103
1957,9,24,3,2270
1957,9,24,4,2392
1957,9,24,5,2450
1957,9,24,6,2404
1957,9,24,7,2240
1957,9,24,8,2051
1957,9,24,9,1828
1957,9,24,10,1652
1957,9,24,11,1603
1957,9,24,12,1630
1957,9,24,13,1752
1957,9,24,14,1920
1957,9,24,15,2097
1957,9,24,16,2270
1957,9,24,17,2386
1957,9,24,18,2414
1957,9,24,19,2325
1957,9,24,20,2142
1957,9,24,21,1929
1957,9,24,22,1767
1957,9,24,23,1648
1957,9,25,0,1624
1957,9,25,1,1703
1957,9,25,2,1840
1957,9,25,3,1999
1957,9,25,4,2176
1957,9,25,5,2313
1957,9,25,6,2353
1957,9,25,7,2298
1957,9,25,8,2142
1957,9,25,9,1941
1957,9,25,10,1746
1957,9,25,11,1627
1957,9,25,12,1603
1957,9,25,13,1664
1957,9,25,14,1798
1957,9,25,15,1972
1957,9,25,16,2142
1957,9,25,17,2273
1957,9,25,18,2356
1957,9,25,19,2356
1957,9,25,20,2240
1957,9,25,21,2057
1957,9,25,22,1871
1957,9,25,23,1712
1957,9,26,0,1633
1957,9,26,1,1642
1957,9,26,2,1731
1957,9,26,3,1877
1957,9,26,4,2051
1957,9,26,5,2179
1957,9,26,6,2258
1957,9,26,7,2258
1957,9,26,8,2164
1957,9,26,9,2023
1957,9,26,10,1847
1957,9,26,11,1712
1957,9,26,12,1627
1957,9,26,13,1618
1957,9,26,14,1697
1957,9,26,15,1844
1957,9,26,16,2011
1957,9,26,17,2170
1957,9,26,18,2298
1957,9,26,19,2334
1957,9,26,20,2292
1957,9,26,21,2179
1957,9,26,22,2036
1957,9,26,23,1822
1957,9,27,0,1691
1957,9,27,1,1655
1957,9,27,2,1673
1957,9,27,3,1767
1957,9,27,4,1898
1957,9,27,5,2026
1957,9,27,6,2139
1957,9,27,7,2185
1957,9,27,8,2173
1957,9,27,9,2078
1957,9,27,10,1944
1957,9,27,11,1813
1957,9,27,12,1716
1957,9,27,13,1667
1957,9,27,14,1682
1957,9,27,15,1780
1957,9,27,16,1917
1957,9,27,17,2060
1957,9,27,18,2182
1957,9,27,19,2258
1957,9,27,20,2270
1957,9,27,21,2206
1957,9,27,22,2097
1957,9,27,23,1941
1957,9,28,0,1807
1957,9,28,1,1706
1957,9,28,2,1667
1957,9,28,3,1691
1957,9,28,4,1773
1957,9,28,5,1889
1957,9,28,6,1999
1957,9,28,7,2097
1957,9,28,8,2118
1957,9,28,9,2106
1957,9,28,10,2011
1957,9,28,11,1914
1957,9,28,12,1816
1957,9,28,13,1752
1957,9,28,14,1746
1957,9,28,15,1783
1957,9,28,16,1868
1957,9,28,17,1981
1957,9,28,18,2072
1957,9,28,19,2164
1957,9,28,20,2194
1957,9,28,21,2225
1957,9,28,22,2173
1957,9,28,23,2054
1957,9,29,0,1923
1957,9,29,1,1807
1957,9,29,2,1743
1957,9,29,3,1743
1957,9,29,4,1776
1957,9,29,5,1847
1957,9,29,6,1935
1957,9,29,7,2014
1957,9,29,8,2069
1957,9,29,9,2078
1957,9,29,10,2045
1957,9,29,11,1969
1957,9,29,12,1880
1957,9,29,13,1819
1957,9,29,14,1792
1957,9,29,15,1792
1957,9,29,16,1837
1957,9,29,17,1901
1957,9,29,18,1990
1957,9,29,19,2075
1957,9,29,20,2142
1957,9,29,21,2157
1957,9,29,22,2145
1957,9,29,23,2081
1957,9,30,0,1981
1957,9,30,1,1880
1957,9,30,2,1792
1957,9,30,3,1725
1957,9,30,4,1719
1957,9,30,5,1740
1957,9,30,6,1798
1957,9,30,7,1877
1957,9,30,8,1932
1957,9,30,9,1972
1957,9,30,10,1984
1957,9,30,11,1962
1957,9,30,12,1914
1957,9,30,13,1868
1957,9,30,14,1807
1957,9,30,15,1776
1957,9,30,16,1767
1957,9,30,17,1792
1957,9,30,18,1847
1957,9,30,19,1920
1957,9,30,20,1999
1957,9,30,21,2072
1957,9,30,22,2103
1957,9,30,23,2093
1957,10,1,0,2042
1957,10,1,1,1959
1957,10,1,2,1874
1957,10,1,3,1789
1957,10,1,4,1728
1957,10,1,5,1706
1957,10,1,6,1719
1957,10,1,7,1776
1957,10,1,8,1850
1957,10,1,9,1926
1957,10,1,10,1981
1957,10,1,11,1999
1957,10,1,12,2002
1957,10,1,13,1965
1957,10,1,14,1914
1957,10,1,15,1865
1957,10,1,16,1822
1957,10,1,17,1828
1957,10,1,18,1859
1957,10,1,19,1920
1957,10,1,20,1950
1957,10,1,21,2011
1957,10,1,22,2072
1957,10,1,23,2133
1957,10,2,0,2133
1957,10,2,1,2103
1957,10,2,2,2042
1957,10,2,3,1981
1957,10,2,4,1920
1957,10,2,5,1859
1957,10,2,6,1831
1957,10,2,7,1847
1957,10,2,8,1917
1957,10,2,9,1965
1957,10,2,10,1996
1957,10,2,11,2078
1957,10,2,12,2106
1957,10,2,13,2109
1957,10,2,14,2084
1957,10,2,15,2017
1957,10,2,16,1969
1957,10,2,17,1905
1957,10,2,18,1868
1957,10,2,19,1868
1957,10,2,20,1932
1957,10,2,21,2008
1957,10,2,22,2081
1957,10,2,23,2142
1957,10,3,0,2173
1957,10,3,1,2179
1957,10,3,2,2139
1957,10,3,3,2072
1957,10,3,4,1996
1957,10,3,5,1883
1957,10,3,6,1813
1957,10,3,7,1770
1957,10,3,8,1776
1957,10,3,9,1822
1957,10,3,10,1892
1957,10,3,11,1975
1957,10,3,12,2057
1957,10,3,13,2078
1957,10,3,14,2097
1957,10,3,15,2066
1957,10,3,16,2002
1957,10,3,17,1938
1957,10,3,18,1865
1957,10,3,19,1822
1957,10,3,20,1816
1957,10,3,21,1847
1957,10,3,22,1920
1957,10,3,23,2002
1957,10,4,0,2090
1957,10,4,1,2157
1957,10,4,2,2200
1957,10,4,3,2179
1957,10,4,4,2084
1957,10,4,5,1993
1957,10,4,6,1883
1957,10,4,7,1798
1957,10,4,8,1758
1957,10,4,9,1755
1957,10,4,10,1804
1957,10,4,11,1877
1957,10,4,12,1965
1957,10,4,13,2069
1957,10,4,14,2133
1957,10,4,15,2167
1957,10,4,16,2115
1957,10,4,17,2026
1957,10,4,18,1932
1957,10,4,19,1828
1957,10,4,20,1767
1957,10,4,21,1755
1957,10,4,22,1807
1957,10,4,23,1908
1957,10,5,0,2008
1957,10,5,1,2124
1957,10,5,2,2206
1957,10,5,3,2197
1957,10,5,4,2148
1957,10,5,5,2036
1957,10,5,6,1905
1957,10,5,7,1773
1957,10,5,8,1700
1957,10,5,9,1685
1957,10,5,10,1722
1957,10,5,11,1822
1957,10,5,12,1941
1957,10,5,13,2090
1957,10,5,14,2209
1957,10,5,15,2240
1957,10,5,16,2212
1957,10,5,17,2127
1957,10,5,18,1999
1957,10,5,19,1892
1957,10,5,20,1807
1957,10,5,21,1773
1957,10,5,22,1801
1957,10,5,23,1877
1957,10,6,0,2026
1957,10,6,1,2130
1957,10,6,2,2255
1957,10,6,3,2310
1957,10,6,4,2255
1957,10,6,5,2157
1957,10,6,6,2014
1957,10,6,7,1889
1957,10,6,8,1780
1957,10,6,9,1725
1957,10,6,10,1737